This is the latest recevied weather packets stored in our database for station/object N3HBJ. If no packets are shown the sender has not sent any weather packets the latest 10 day(s).
| Time | Temp. | Humidity | Pressure | Rain* | Wind** | Luminosity | Snow |
|---|---|---|---|---|---|---|---|
| 1777842825 | 13.33° C | 40% | 1012.8 hPa | 0 mm | - | 615 W/m² | - |
| 1777842089 | 12.78° C | 39% | 1012.8 hPa | 0 mm | - | 195 W/m² | - |
| 1777836976 | 12.78° C | 40% | 1013.6 hPa | 0 mm | - | 870 W/m² | - |
| 1777836374 | 13.33° C | 38% | 1013.5 hPa | 0 mm | - | 237 W/m² | - |
| 1777835774 | 13.33° C | 37% | 1013.7 hPa | 0 mm | - | 359 W/m² | - |
| 1777833370 | 12.78° C | 39% | 1014.2 hPa | 0 mm | - | 940 W/m² | - |
| 1777832917 | 12.78° C | 39% | 1014.3 hPa | 0 mm | - | 306 W/m² | - |
| 1777829757 | 11.67° C | 39% | 1014.4 hPa | 0 mm | - | 381 W/m² | - |
| 1777828253 | 11.11° C | 41% | 1014.5 hPa | 0 mm | - | 385 W/m² | - |
| 1777827354 | 10.56° C | 46% | 1014.6 hPa | 0 mm | - | 415 W/m² | - |
| 1777825553 | 10.56° C | 41% | 1014.8 hPa | 0 mm | - | 990 W/m² | - |
| 1777825251 | 10.56° C | 44% | 1014.8 hPa | 0 mm | - | 1011 W/m² | - |
| 1777823588 | 9.44° C | 46% | 1015.1 hPa | 0 mm | - | 907 W/m² | - |
| 1777823140 | 9.44° C | 47% | 1015.2 hPa | 0 mm | - | 896 W/m² | - |
| 1777821039 | 9.44° C | 50% | 1015.7 hPa | 0 mm | - | 234 W/m² | - |
| 1777820731 | 8.89° C | 52% | 1015.7 hPa | 0 mm | - | 907 W/m² | - |
| 1777818935 | 8.33° C | 47% | 1015.8 hPa | 0 mm | - | 828 W/m² | - |
| 1777817733 | 7.22° C | 53% | 1015.9 hPa | 0 mm | - | 153 W/m² | - |
| 1777815028 | 6.67° C | 60% | 1015.9 hPa | 0 mm | - | 584 W/m² | - |
| 1777812325 | 4.44° C | 67% | 1016.1 hPa | 0 mm | - | 454 W/m² | - |
| 1777811561 | 4.44° C | 70% | 1016 hPa | 0 mm | - | 406 W/m² | - |
| 1777809917 | 2.78° C | 75% | 1015.9 hPa | 0 mm | - | 316 W/m² | - |
| 1777807657 | -0.56° C | 88% | 1015.8 hPa | 0 mm | - | 74 W/m² | - |
| 1777806912 | -1.67° C | 88% | 1015.7 hPa | 0 mm | - | 109 W/m² | - |
| 1777806613 | -1.67° C | 88% | 1015.5 hPa | 0 mm | - | 33 W/m² | - |
* Rain latest hour (hover to see other rain measurements)
** Current wind speed in m/s (hover to see current wind gust speed)